Regional Weather Roundup
Issued by NWS

Home | Current Version | Previous Version | Graphics & Text | Print | Product List | Glossary On
Versions: 1 2 3 4 5 6 7 8 9 10 11 12 13 14 15 16 17 18 19 20 21 22 23 24 25 26 27 28 29 30 31 32 33 34 35 36 37 38 39 40 41 42 43 44 45 46 47 48 49 50
906
ASUS45 KCYS 220910
RWRWY

WYOMING REGIONAL WEATHER ROUNDUP
NATIONAL WEATHER SERVICE CHEYENNE WY
300 AM MDT FRI SEP 22 2017

NOTE:  "FAIR" INDICATES FEW OR NO CLOUDS BELOW 12,000 FEET
WITH NO SIGNIFICANT WEATHER AND/OR OBSTRUCTIONS TO VISIBILITY.

WYZ001-221000-
YELLOWSTONE NATIONAL PARK

CITY           SKY/WX    TMP DP  RH WIND       PRES   REMARKS
LK YELLOWSTONE NOT AVBL
W YELLOWSTONE  NOT AVBL

$$
WYZ002>013-054>058-071-098>099-221000-
NORTHERN WYOMING

CITY           SKY/WX    TMP DP  RH WIND       PRES   REMARKS
JACKSON        CLOUDY    34  34 100 W5        29.80S WCI  30
CODY           LGT RAIN  35  33  92 NW8       29.90R WCI  29
GREYBULL       CLOUDY    42  38  85 NW15      29.83F
WORLAND        CLOUDY    42  37  82 NW13      29.84R
SHERIDAN       CLOUDY    44  40  85 W9        29.92S
BUFFALO        CLOUDY    43  35  73 NW14      29.91S
GILLETTE       FAIR      42  35  76 N17       29.84S
HULETT         FAIR      43  34  70 N6        29.84F
NEWCASTLE      FAIR      55  37  50 NE13      29.73F

$$
WYZ014>020-022>026-101>103-221000-
CENTRAL WYOMING

CITY           SKY/WX    TMP DP  RH WIND       PRES   REMARKS
BIG PINEY      CLOUDY    45  34  65 SW12      29.80S
PINEDALE       LGT RAIN  41  39  93 CALM      29.85R
DUBOIS         RAIN      36  34  93 E3        29.76F
LANDER           N/A    N/A N/A N/A MISG      29.79S
RIVERTON       CLOUDY    42  37  82 NE12      29.79R
CASPER         MOCLDY    39  32  76 NE9       29.84F WCI  33
DOUGLAS        FAIR      40  32  73 NW13      29.82F WCI  32

$$
WYZ021-027>030-104>119-221000-
SOUTHERN WYOMING

CITY           SKY/WX    TMP DP  RH WIND       PRES   REMARKS
EVANSTON       LGT RAIN  33  33 100 S7        29.82F FOG     WCI  27
KEMMERER       LGT RAIN  37  36  93 SW10G23   29.83R WCI  30
ROCK SPRINGS   CLOUDY    44  36  73 W17G23    29.83R
DIXON          FAIR      64  17  16 S14G24    29.80S
RAWLINS        FAIR      52  23  32 SE5       29.77F
SARATOGA       FAIR      55  21  26 S7G22     29.81S
LARAMIE        FAIR      46  21  37 SE5       29.84S
CHEYENNE       FAIR      50  36  58 N15G24    29.79S
TORRINGTON     FAIR      52  40  63 N6        29.72R
PINE BLUFFS    FAIR      50  37  62 NW10      29.76R

$$




USA.gov is the U.S. government's official web portal to all federal, state and local government web resources and services.